{"data":{"norad_id":64220,"intl_designator":"2025-117T","name":"STARLINK-34328","alt_names":[],"object_type":"PAYLOAD","status":"ACTIVE","operator":null,"country":"US","launch_date":"2025-05-31","launch_site_code":"AFWTR","launch_vehicle":null,"mission":null,"orbit_class":"UNKNOWN","rcs_meters":null,"size_class":null,"mass_kg":null,"dimensions":null,"purposes":["comms"],"wikipedia_slug":null,"has_3d_model":false,"image_url":null,"decayed_at":null,"tle_current":{"epoch":"2026-09-20T07:01:42.184704Z","epoch_age_seconds":155548,"freshness":"FRESH","line1":"1 64220U 25117T   26263.29284936  .00025702  00000+0  76895-3 0  9995","line2":"2 64220  53.1581 212.6204 0001206  74.6754 285.4382 15.34410507 74360","mean_motion":15.34410507,"eccentricity":0.0001206,"inclination_deg":53.1581,"raan_deg":212.6204,"arg_perigee_deg":74.6754,"mean_anomaly_deg":285.4382,"bstar":0.00076895,"rev_number":7436,"period_min":93.847115451224,"perigee_km":461.84700980029,"apogee_km":463.49701293383,"semimajor_km":6840.8090113671,"source":"CELESTRAK","updated_at":"2026-09-21T09:00:35.273629Z"}}}